Home   Weather   Viseu   Past weeks

Flag for Portugal Past Weather in Viseu, Portugal — Yesterday and Last 2 Weeks

Now
59 °F

Cool.


Feels Like: 60 °F
Forecast: N/A
Wind: 3 mph from South

Location: Viseu

Current Time: Dec 10, 2016 at 4:40:08 pm

Latest Report: Dec 10, 2016 at 3:00 pm


Visibility: N/A

Pressure: 30.29 "Hg

Humidity: 68%

Dew Point: 48 °F

Location of ViseuLocation

Past Weather in Viseu — Graph

°F

Viseu Temperature Yesterday

Maximum temperature yesterday: 59 °F (at 2:00 pm)
Minimum temperature yesterday: 42 °F (at 6:00 am)
Average temperature yesterday: 49 °F

High & Low Weather Summary for the Past Weeks

 TemperatureHumidityPressure
High62 °F (Dec 6, 3:00 pm)100% (Nov 25, 3:00 pm)30.46 "Hg (Nov 25, 3:00 pm)
Low39 °F (Nov 29, 7:00 am)56% (Nov 30, 1:00 pm)29.60 "Hg (Nov 25, 3:00 pm)
Average49 °F87%30.05 "Hg
* Reported Nov 25 3:00 pm — Dec 10 3:00 pm, Viseu, Weather by CustomWeather, © 2016

Note: Actual official high and low records may vary slightly from our data, if they occured in-between our weather recording intervals... More about our weather records

Advertising

Viseu Weather History for the Previous 24 Hours

Scroll right to see more
 ConditionsComfort  
Time TempWeatherWind HumidityBarometerVisibility
3:00 pm
Sat, Dec 10
59 °FCool.3 mph68%30.29 "HgN/A
2:00 pm59 °FCool.3 mph68%30.28 "HgN/A
1:00 pm59 °FCool.3 mph68%30.31 "HgN/A
12:00 pm58 °FCool.5 mph71%30.33 "HgN/A
11:00 am56 °FCool.6 mph76%30.35 "HgN/A
10:00 am55 °FCool.6 mph80%30.35 "HgN/A
9:00 am51 °FCool.5 mph90%30.36 "HgN/A
8:00 am48 °FCool.2 mph93%30.35 "HgN/A
7:00 am48 °FCool.3 mph91%30.34 "HgN/A
6:00 am47 °FCool.5 mph94%30.32 "HgN/A
5:00 am47 °FCool.3 mph94%30.33 "HgN/A
4:00 am47 °FCool.6 mph94%30.34 "HgN/A
3:00 am46 °FCool.3 mph96%30.36 "HgN/A
2:00 am47 °FCool.3 mph91%30.36 "HgN/A
1:00 am47 °FCool.5 mph92%30.37 "HgN/A
12:00 am46 °FCool.3 mph92%30.39 "HgN/A
11:00 pm
Fri, Dec 9
47 °FCool.5 mph88%30.39 "HgN/A
10:00 pm47 °FCool.5 mph87%30.39 "HgN/A
9:00 pm47 °FCool.5 mph89%30.40 "HgN/A
8:00 pm48 °FCool.6 mph82%30.39 "HgN/A
7:00 pm49 °FClear.5 mph80%30.38 "Hg11 mi
6:00 pm51 °FClear.6 mph74%30.37 "Hg11 mi
5:00 pm54 °FPassing clouds.2 mph72%30.35 "Hg19 mi
4:00 pm57 °FPassing clouds.3 mph63%30.34 "Hg19 mi
Weather by CustomWeather, © 2016

See weather overviewHow to use our weather pages